Presure
166 145 243 233 242 230 229 219 211 235 222 218 198 202 216 226 252 270 237 235 214 208 219 210 191 170 163 170 182 157 162 165 174 182 171 175 181 172 174 161 180 174 169 188 169
274 273 250 249 249 235 233 219 209 208 217 226 219 205 193 217 216 244 270 239 235 208 206 207 183 184 168 164 171 168 169 164 165 181 183 178 181 180 181 181 174 159 179 183 180
292 261 263 251 261 248 224 231 221 204 214 215 219 211 207 188 211 209 237 265 273 240 206 206 204 197 192 179 169 170 167 174 173 152 184 183 160 172 165 177 175 168 160 171 228
284 226 264 250 260 263 255 229 229 216 212 218 191 216 205 207 191 206 208 233 241 281 240 241 238 209 203 200 206 190 194 183 175 180 178 184 161 173 175 173 168 166 171 207 225
293 193 278 259 277 273 253 243 232 225 212 216 219 215 217 205 207 194 203 209 222 258 269 231 234 231 225 222 226 210 197 207 190 202 185 164 181 172 178 173 161 174 194 218 212
272 209 284 285 273 284 269 253 248 228 227 207 221 223 205 217 202 201 200 197 207 237 259 259 225 226 226 218 205 214 210 207 198 196 197 174 203 180 158 189 216 173 211 215 210
312 223 257 275 267 282 266 257 251 244 232 217 211 218 219 200 211 203 186 203 192 209 227 258 235 220 218 211 214 212 198 196 191 190 190 197 180 185 219 216 212 208 208 204 201
167 313 293 295 158 276 276 265 240 241 229 224 224 213 210 219 202 206 204 193 196 199 223 243 246 238 212 211 207 209 207 197 212 196 198 216 209 171 218 204 195 198 198 199 194
333 322 317 290 293 285 276 266 264 245 233 222 235 232 209 207 222 203 203 201 198 189 205 226 241 239 238 209 206 203 203 207 218 217 214 209 217 206 190 198 196 192 187 190 194
183 305 292 287 285 298 291 291 280 256 241 241 232 226 214 204 211 225 206 205 193 198 188 209 230 235 229 214 211 205 212 210 209 208 208 214 202 205 200 200 188 182 189 188 186
290 288 281 265 277 277 271 279 294 278 250 240 234 235 229 212 206 208 210 204 204 197 193 196 225 229 217 211 212 215 217 214 207 209 211 200 205 200 197 189 183 186 188 190 190
282 292 283 278 262 264 263 256 282 275 274 265 254 234 234 225 214 215 223 204 205 197 196 194 195 221 219 212 213 214 205 202 207 199 202 202 201 195 186 182 187 187 187 182 190
301 284 277 260 264 263 253 252 257 261 282 265 265 258 237 232 222 217 214 220 199 205 195 191 188 215 218 214 209 202 198 190 198 202 194 201 191 188 185 187 186 185 182 186 185
289 278 271 275 280 268 264 257 255 251 253 260 256 275 263 255 232 224 223 210 213 199 202 192 190 190 214 216 207 199 201 200 190 194 201 190 187 186 186 186 185 183 182 186 189
279 295 273 315 493 490 465 456 439 439 285 268 249 248 251 257 251 235 234 226 226 207 211 194 194 190 207 208 204 189 198 197 193 196 206 186 189 185 184 184 186 180 181 185 182
303 380 516 505 496 481 470 460 429 432 437 207 223 161 242 247 256 240 240 251 236 224 204 207 191 198 192 214 205 191 197 191 195 195 203 191 182 182 182 184 181 179 183 181 184
437 505 497 480 470 440 421 428 419 409 409 422 428 430 269 241 243 251 256 256 247 227 215 212 202 188 193 204 210 195 192 194 192 190 181 184 187 183 184 180 178 172 177 185 185
498 481 468 457 473 410 404 395 377 388 405 394 385 393 409 387 249 241 241 253 252 231 226 208 210 197 194 190 204 195 192 196 188 191 183 177 188 181 185 182 174 170 178 183 173
480 452 454 450 468 424 432 386 368 375 383 374 388 393 378 380 399 249 244 239 255 239 230 224 208 204 196 197 189 201 200 197 197 193 190 188 185 180 184 182 180 169 175 179 184
463 462 443 448 450 439 413 399 374 363 380 365 360 350 353 385 356 372 252 245 243 255 233 227 222 214 202 199 199 195 196 194 192 194 192 189 185 176 179 186 179 174 175 172 177
459 456 433 432 428 423 420 406 376 360 381 341 359 356 351 345 358 379 390 247 243 246 248 225 227 219 210 203 203 202 196 190 199 194 191 186 184 183 182 184 176 171 178 181 182
441 444 434 428 429 422 413 401 380 352 355 347 351 338 350 332 361 367 365 388 242 244 243 240 230 228 224 209 200 205 193 202 181 190 192 188 181 181 187 182 182 172 180 178 187
434 431 437 427 388 405 416 387 369 348 339 349 341 343 327 346 344 358 354 371 265 243 240 236 232 231 234 220 209 191 204 195 193 173 181 188 177 179 186 174 181 179 173 180 174
442 428 442 389 370 382 419 385 362 358 351 344 342 335 325 326 340 346 354 356 359 261 244 242 240 238 223 227 208 203 190 198 192 196 183 188 182 185 188 186 191 177 184 183 180
431 420 388 374 378 390 405 402 387 361 385 329 331 328 338 328 330 335 341 342 326 355 354 246 237 238 226 231 228 208 203 195 199 184 181 185 186 187 189 184 187 175 181 186 184
431 410 391 381 404 382 416 386 369 384 376 335 319 326 323 324 326 316 324 313 315 330 354 354 241 234 238 228 230 226 210 204 195 177 174 177 182 188 194 182 182 186 171 180 179
435 396 386 376 392 364 362 374 390 371 355 324 330 318 313 307 309 316 306 322 319 318 323 356 375 248 231 230 229 232 214 207 204 193 193 183 187 186 185 189 179 181 184 173 179
Wind_Speed
67 75 42 43 49 45 44 44 42 49 46 49 54 54 51 47 39 48 70 77 89 77 76 81 79 80 76 78 82 71 72 76 74 76 73 70 69 68 69 67 68 67 67 68 65
46 41 42 44 49 49 52 45 46 46 53 49 54 58 56 50 54 41 46 67 75 79 75 77 81 84 79 76 78 76 80 76 73 76 76 71 69 69 66 67 69 65 65 67 67
46 47 43 45 51 54 50 56 52 48 53 57 55 56 61 58 55 58 44 46 50 72 76 78 81 85 87 85 81 82 80 81 76 62 77 73 66 68 67 70 67 62 60 64 51
46 59 44 45 50 57 62 60 59 55 54 60 59 59 59 64 63 58 60 46 53 45 68 71 77 81 83 83 85 89 86 83 79 80 75 73 66 70 73 70 63 61 64 57 50
46 64 47 45 51 59 60 64 66 63 57 59 63 65 62 64 64 66 61 59 54 47 50 66 70 72 73 74 75 79 81 81 82 80 76 68 71 72 72 69 63 64 60 51 51
55 61 47 52 49 59 63 65 68 70 67 60 64 66 66 67 65 68 67 64 61 48 48 55 66 67 67 68 71 72 73 74 77 76 76 72 73 71 64 61 54 66 56 52 51
50 60 53 45 45 58 62 68 69 70 74 69 67 70 67 69 68 69 66 66 66 58 55 53 62 65 66 67 67 69 71 73 77 76 74 73 69 71 53 53 52 51 53 54 54
75 50 49 49 41 50 61 65 65 73 70 75 75 72 72 71 73 72 72 71 69 64 53 53 57 63 65 65 66 66 67 73 70 73 72 62 62 61 53 55 56 54 56 54 57
50 47 51 50 55 55 55 66 75 75 73 69 79 79 75 76 73 77 74 76 72 72 62 55 57 58 61 64 64 63 65 67 64 62 61 59 55 57 60 57 55 56 58 56 56
82 48 48 50 54 64 61 63 75 77 81 84 84 83 80 80 79 79 82 78 76 72 70 60 57 58 57 61 63 67 66 66 64 61 59 55 59 57 57 55 57 58 56 58 60
57 53 56 62 58 58 58 61 67 79 84 88 84 88 90 85 82 82 86 81 82 77 74 70 59 57 66 69 67 63 60 60 60 60 58 59 57 58 56 58 58 56 56 57 58
68 60 63 64 67 67 63 65 70 74 82 89 95 89 91 92 90 89 87 87 86 83 79 73 65 70 70 69 65 60 59 61 62 62 59 58 57 58 58 58 55 55 56 56 54
66 69 71 76 76 72 75 76 78 76 84 79 85 90 97 94 92 94 93 93 90 90 84 79 78 75 72 69 65 66 68 65 65 62 60 58 58 58 57 56 55 56 56 53 54
77 81 84 85 84 83 82 90 89 86 90 76 81 83 92 99 95 100 97 96 99 92 94 86 82 78 74 70 71 71 73 69 64 64 61 59 59 56 57 57 56 56 54 53 51
89 86 91 91 61 60 64 64 67 70 103 84 79 83 90 96 95 101 106 104 100 102 99 91 90 84 77 78 78 77 74 71 68 66 64 58 58 58 57 58 57 55 52 52 48
91 73 35 32 40 39 46 45 56 60 68 30 37 40 91 97 96 105 107 101 102 108 97 100 90 88 81 83 81 79 75 70 71 67 61 61 57 62 58 56 58 53 49 48 46
55 34 25 28 29 28 36 29 40 60 57 61 61 61 99 101 102 105 106 101 104 107 105 101 98 85 86 85 84 80 77 75 72 66 59 64 59 65 58 57 57 50 49 49 45
32 24 23 27 26 35 40 35 51 48 48 50 53 53 53 63 110 108 110 107 108 109 110 103 105 97 92 87 85 86 84 81 76 71 66 63 59 63 60 58 56 49 49 48 38
20 29 22 26 27 38 40 47 48 41 40 46 44 47 50 54 53 115 111 109 112 114 112 112 104 104 98 95 89 89 87 82 79 73 69 64 61 63 60 61 58 47 48 48 47
23 21 23 26 23 36 41 47 47 40 29 45 46 48 49 36 58 57 116 111 109 115 114 112 112 108 106 99 94 87 88 80 73 72 70 66 65 61 61 60 58 51 48 45 46
20 18 22 23 25 32 42 43 44 39 35 41 42 42 47 48 49 44 49 112 109 112 117 109 112 108 110 102 95 94 87 75 81 73 70 68 67 66 61 60 57 49 52 50 50
20 17 20 22 22 28 36 47 44 35 31 43 37 42 41 47 41 43 46 46 109 112 112 113 113 112 107 107 97 97 85 89 62 69 73 72 68 66 63 60 60 51 54 50 52
17 14 15 12 12 16 23 45 44 40 42 36 41 34 41 33 39 38 44 43 107 113 110 109 112 110 111 109 105 82 94 83 78 58 64 73 68 67 68 59 60 56 49 53 48
16 11 14 13 15 20 25 50 43 43 44 39 39 42 44 42 39 39 42 43 44 106 110 113 110 107 102 101 105 100 88 92 81 82 70 72 75 75 69 63 63 57 59 57 52
14 16 13 14 24 24 31 42 54 33 40 46 43 40 41 42 42 41 42 40 53 45 62 112 104 105 104 106 109 105 102 89 91 74 70 80 81 75 67 60 64 61 60 58 57
12 23 13 12 18 19 29 30 25 31 40 43 44 41 42 41 44 48 51 55 58 49 46 60 108 105 107 105 106 109 107 98 87 64 61 65 69 71 76 68 67 66 55 58 57
12 14 11 14 18 22 22 23 30 39 41 46 47 49 49 47 45 46 49 52 52 49 51 48 55 110 107 105 106 107 105 100 95 88 92 74 91 83 73 75 67 67 65 54 58
Wind_Direction
327 334 296 289 266 265 264 266 265 275 258 252 253 252 245 246 252 246 242 241 243 240 242 237 237 237 239 241 240 243 245 243 245 246 246 248 247 247 249 248 251 251 251 257 251
301 287 292 278 266 263 259 262 268 258 263 255 250 247 252 242 244 250 246 242 241 240 237 237 237 236 240 241 241 242 244 244 245 247 247 248 250 251 251 251 250 247 255 258 257
288 300 281 278 266 261 264 253 254 265 257 260 253 249 244 251 243 241 251 248 241 239 237 237 236 237 238 239 241 241 244 246 248 242 248 247 247 251 251 252 252 251 249 258 258
292 306 283 281 267 261 257 255 248 251 250 257 260 249 248 243 248 242 240 250 244 241 238 238 238 238 238 239 241 240 242 245 247 247 247 248 248 249 251 252 252 253 256 258 256
291 321 280 276 267 261 256 251 247 244 250 249 252 254 248 246 243 244 241 239 245 245 238 237 236 236 238 240 242 243 243 246 246 247 247 245 248 248 249 253 253 257 257 254 253
309 312 277 264 267 266 256 254 250 246 241 252 248 248 251 247 244 245 242 240 238 246 242 234 236 235 236 237 239 241 242 244 244 246 248 245 253 247 250 253 250 256 255 255 254
283 307 287 271 262 262 252 250 251 249 243 245 244 244 244 248 245 242 243 241 241 238 240 236 234 235 235 235 238 238 240 242 244 245 246 249 247 247 245 241 244 249 251 253 255
324 275 275 260 273 255 249 251 247 246 246 246 241 240 241 242 245 244 241 243 239 238 242 241 231 231 235 234 236 236 237 241 242 243 246 242 243 245 237 240 246 248 251 253 256
284 275 267 266 258 258 250 244 243 243 244 246 241 242 238 240 243 242 240 239 241 237 236 238 232 227 226 233 235 237 236 236 233 234 235 237 235 236 242 240 242 247 252 255 256
319 282 279 269 262 256 256 248 244 242 242 241 239 239 234 239 240 238 240 237 239 238 236 235 232 222 222 228 227 228 227 230 232 233 233 230 234 234 237 237 243 248 250 254 257
302 292 286 290 273 265 265 253 248 242 239 239 240 239 234 235 236 239 235 237 235 237 235 233 232 221 218 222 224 224 223 224 229 230 228 232 231 234 236 240 245 247 249 253 258
305 288 282 279 285 279 274 268 253 243 236 238 239 239 239 233 235 236 235 233 233 232 234 232 229 221 219 221 222 221 223 226 226 228 227 230 230 234 239 245 246 249 252 255 260
295 293 289 295 286 279 279 270 259 254 242 236 235 236 237 236 232 234 233 231 233 230 231 232 228 228 221 220 219 222 224 226 226 226 227 227 233 236 241 243 247 250 254 258 261
302 302 301 292 286 281 275 268 265 260 256 237 234 232 234 236 233 234 232 231 229 230 227 230 230 231 226 220 220 224 225 225 228 227 227 227 234 236 241 244 245 250 256 259 262
311 300 303 291 271 268 267 262 259 256 250 245 236 230 229 232 230 233 233 229 226 228 225 225 229 229 227 220 221 228 225 227 229 229 227 230 231 237 240 245 247 248 253 259 264
308 303 281 267 261 258 259 258 252 245 243 259 286 254 232 229 226 227 232 230 225 224 227 224 228 227 227 223 222 230 227 228 228 228 228 231 233 240 238 243 249 254 256 260 265
304 289 284 266 257 247 253 246 249 246 246 246 248 248 228 230 226 223 223 223 221 223 224 225 225 229 228 226 223 228 230 228 230 231 229 233 230 237 240 240 247 254 258 262 266
290 289 269 257 224 228 243 214 238 243 243 245 243 243 242 232 225 225 225 222 218 222 221 222 222 225 226 228 224 225 228 225 230 228 228 237 229 236 241 242 246 250 256 261 257
292 287 268 254 235 224 207 214 237 239 236 239 240 239 234 235 230 223 223 224 218 219 221 221 223 223 224 223 226 223 224 226 228 229 230 232 232 234 239 244 246 250 255 261 265
290 268 260 252 231 206 214 215 227 232 235 234 235 227 225 228 224 224 221 221 223 219 222 223 222 221 224 225 224 226 226 229 231 229 230 233 234 236 238 243 248 252 254 257 262
280 267 251 249 224 210 212 205 214 223 213 225 228 227 223 223 227 225 223 219 221 222 220 224 225 223 222 225 224 223 227 230 228 229 231 232 235 238 238 241 246 251 256 259 262
294 274 249 242 227 224 216 205 206 217 205 217 219 219 220 219 228 223 216 214 220 222 222 223 224 225 223 224 225 223 227 227 225 231 230 232 237 242 238 242 246 249 254 259 262
287 284 254 220 243 252 222 204 203 218 221 212 208 207 212 218 219 212 210 206 217 220 221 223 224 224 224 223 225 226 225 229 230 222 232 234 239 243 242 244 246 250 251 256 258
272 264 206 202 250 256 235 201 214 214 213 202 202 201 204 207 206 204 201 202 211 219 220 222 223 223 225 225 225 224 227 227 229 231 234 236 239 241 242 243 245 251 253 255 258
271 200 244 241 229 222 198 191 210 218 210 198 200 201 202 203 196 196 193 200 211 212 220 221 221 223 223 223 223 223 225 225 227 225 226 235 238 242 244 245 247 247 252 256 258
257 198 235 233 201 206 204 208 203 210 190 194 195 198 196 194 192 197 197 204 208 208 215 213 219 220 222 223 223 223 225 226 225 218 223 234 241 246 248 244 246 249 247 255 258
219 218 224 214 192 203 214 215 205 187 186 194 192 192 188 194 192 195 203 201 206 202 212 216 209 219 221 222 222 222 224 228 226 228 231 229 237 236 240 246 244 247 250 250 257